Regional Weather Roundup
Issued by NWS Kansas City/Pleasant Hill, MO

Home | Current Version | Previous Version | Graphics & Text | Print | Product List | Glossary Off
Versions: 1 2 3 4 5 6 7 8 9 10 11 12 13 14 15 16 17 18 19 20 21 22 23 24 25 26 27 28 29 30 31 32 33 34 35 36 37 38 39 40 41 42 43 44 45 46 47 48 49 50

000
ASUS43 KEAX 281704
RWREAX

WEATHER ROUNDUP FOR EASTERN KANSAS AND NORTHWEST MISSOURI
NATIONAL WEATHER SERVICE KANSAS CITY/PLEASANT HILL MO
1100 AM CST SAT FEB 28 2015

KSZ040-057-103>105-MOZ028-029-037-043-281800-
...KANSAS CITY METROPOLITAN AREA...

CITY           SKY/WX    TMP DP  RH WIND       PRES   REMARKS
K.C. INTL      LGT SNOW  19  15  84 SE8       30.50S VSB 1   WCI   9
K.C. DOWNTOWN  LGT SNOW  21  16  81 E5        30.52F VSB 3/4 WCI  15
LEES SUMMIT    LGT SNOW  20  15  81 SE6       30.50F VSB 1   WCI  12
OLATHE - IXD   LGT SNOW  20  15  81 SE6       30.49F WCI  12
OLATHE - OJC   LGT SNOW  19  16  88 E8        30.47F VSB 3/4 WCI   9
LAWRENCE       LGT SNOW  20  16  84 SE7       30.50F VSB 3/4 WCI  11

$$

MOZ001>008-011>017-020>025-030>033-038>040-044>046-053-054-281800-
...NORTHERN AND CENTRAL MISSOURI...

CITY           SKY/WX    TMP DP  RH WIND       PRES   REMARKS
ST. JOSEPH     LGT SNOW  20  15  81 SE8       30.53F VSB 1   WCI  10
MOSBY          LGT SNOW  21  16  79 SE5       30.53F WCI  15
WARRENSBURG    LGT SNOW  23  18  80 SE6       30.52F VSB 1   WCI  16
WHITEMAN AFB   MIX PCPN  21  14  73 S9        30.52S WCI  11
CLINTON        LGT SNOW  23  19  86 SE7       30.53F VSB 3/4 WCI  15
SEDALIA        LGT SNOW  24  12  60 SE9       30.54S WCI  14
WARSAW         NOT AVBL
MARSHALL       PTSUNNY   25  12  58 SE10      30.56S WCI  15
CHILLICOTHE      N/A     24  12  60 SE9       30.56S WCI  14
MOBERLY        PTSUNNY   25  10  54 SE7       30.56S WCI  17
KIRKSVILLE     CLOUDY    23  10  57 SE15      30.56R WCI  10

$$

MOZ041-047>049-056>058-063>065-088>090-097-281800-
...EASTERN AND SOUTHERN MISSOURI...

CITY           SKY/WX    TMP DP  RH WIND       PRES   REMARKS
ST. LOUIS INTL PTSUNNY   25   9  50 E12       30.60F WCI  14
SPIRIT OF STL  CLOUDY    24   7  48 SE8       30.60F WCI  15
COLUMBIA       CLOUDY    24  12  60 SE10      30.55S WCI  14
JEFFERSON CITY CLOUDY    25  11  55 E9        30.58S WCI  15
MEXICO         CLOUDY    25  16  68 SE7       30.57  WCI  17
HANNIBAL       MOSUNNY   30   3  31 E5        30.58S WCI  25
ROLLA          LGT SNOW  23  13  65 SE8       30.51S WCI  14
OSAGE BEACH    CLOUDY    23  14  68 SE5       30.53F WCI  17
SPRINGFIELD    SNOW      21  17  84 SE13      30.46F VSB 1/2 WCI   9
BRANSON        LGT SNOW  23  18  80 E7        30.48S VSB 1   WCI  15
NEVADA         LGT SNOW  21  19  93 SE7       30.50F VSB 1   WCI  13
JOPLIN         SNOW      23  19  85 SE8       30.47F VSB 1/2 WCI  14
WEST PLAINS    LGT SNOW  21  16  81 E8        30.51F WCI  11

$$

IAZ060-094-KSZ022-034>040-054-083-096-NEZ052-066-093-281800-
...KANSAS...SOUTHEAST NEBRASKA AND IOWA...

CITY           SKY/WX    TMP DP  RH WIND       PRES   REMARKS
TOPEKA         LGT SNOW  21  16  81 E8        30.49F VSB 3/4 WCI  11
MANHATTAN      LGT SNOW  20  16  84 SE6       30.45F VSB 1   WCI  12
EMPORIA        LGT SNOW  19  16  88 E7        30.43F VSB 3/4 WCI  10
CHANUTE        LGT SNOW  22  19  89 SE9       30.47S VSB 3/4 WCI  12
WICHITA        SNOW      19  15  84 SE8       30.41S VSB 1/2 WCI   9
OMAHA          PTSUNNY   19   8  62 S13       30.48F WCI   6
LINCOLN        LGT SNOW  19  12  74 S14       30.46S WCI   6
FALLS CITY     LGT SNOW  20  14  77 S8        30.49F WCI  10
LAMONI         PTSUNNY   18   8  65 SE8       30.50F WCI   8
DES MOINES     MOSUNNY   17   4  56 S8        30.54F WCI   7

$$




USA.gov is the U.S. government's official web portal to all federal, state and local government web resources and services.